Regional Weather Roundup
Issued by NWS

Home | Current Version | Previous Version | Graphics & Text | Print | Product List | Glossary On
Versions: 1 2 3 4 5 6 7 8 9 10 11 12 13 14 15 16 17 18 19 20 21 22 23 24 25 26 27 28 29 30 31 32 33 34 35 36 37 38 39 40 41 42 43 44 45 46 47 48 49 50
000
ASUS43 KOAX 231310
RWRNE

WEATHER ROUNDUP FOR NEBRASKA
NATIONAL WEATHER SERVICE OMAHA NE
800 AM CDT THU OCT 23 2014

NOTES: SATELLITE DATA IS BEING USED TO AUGMENT CLOUD COVER ABOVE
       12000 FEET.
       "FAIR" INDICATES FEW OR NO CLOUDS BELOW 12,000 FEET WITH NO
       SIGNIFICANT WEATHER AND/OR OBSTRUCTIONS TO VISIBILITY.

  * THESE STATIONS DO NOT REPORT WEATHER SUCH AS RAIN...SNOW OR FOG.

NEZ001>004-019>022-054>056-231400-
NEBRASKA PANHANDLE

CITY           SKY/WX    TMP DP  RH WIND       PRES   REMARKS
SCOTTSBLUFF    PTCLDY    30  28  92 CALM      30.10S
ALLIANCE       CLEAR     26  21  81 CALM      30.08S
CHADRON        PTCLDY    29  24  82 W6        30.04F WCI  23
KIMBALL        PTCLDY    34  32  93 NW6       30.12R WCI  29
SIDNEY         CLEAR     35  31  85 W8        30.12R WCI  29
$$

NEZ057>060-069>072-079>082-231400-
SOUTHWEST NEBRASKA

CITY           SKY/WX    TMP DP  RH WIND       PRES   REMARKS
NORTH PLATTE   FOG       36  35  96 NW3       30.09R VSB 1/4
IMPERIAL       CLEAR     42  32  67 W6        30.10S
LEXINGTON      FOG       47  46  99 W3        30.08R VSB 1/4
MCCOOK         FOG       46  45  96 W5        30.10S VSB 1/4
OGALLALA       CLEAR     35  33  93 W6        30.10R WCI  30
$$

NEZ005>010-023>029-035>040-094-231400-
NORTH CENTRAL NEBRASKA

CITY           SKY/WX    TMP DP  RH WIND       PRES   REMARKS
VALENTINE      CLEAR     30  29  96 W6        30.03R WCI  24
AINSWORTH      MOCLDY    42  42  99 SW3       30.03S FOG
BROKEN BOW     FOG       39  38  96 CALM      30.06S VSB 1/4
O`NEILL        FOG       38  38 100 SW5       30.04S VSB 1/4 WCI  34
ORD            FOG       37  37 100 CALM      30.06S VSB 1/2
THEDFORD       FOG       44  44  98 CALM      30.07S VSB 1/4
$$

NEZ041-046>049-061>064-073>077-083>087-231400-
SOUTH CENTRAL NEBRASKA

CITY           SKY/WX    TMP DP  RH WIND       PRES   REMARKS
GRAND ISLAND   FOG       46  44  93 SW3       30.08R VSB 1/4
AURORA         FOG       49  49 100 CALM      30.07S VSB<1/4
HASTINGS       FOG       50  49  96 CALM      30.07S VSB 1/4
HEBRON         FOG       54  52  94 CALM      30.07R VSB 3/4
HOLDREGE       FOG       44  43  97 CALM      30.07S VSB 1/4
KEARNEY *      CLOUDY    45  43  93 W3        30.08S VSB<1/4
YORK           FOG       52  52 100 CALM      30.07S VSB<1/4
$$

NEZ011>018-030>034-042>045-231400-
NORTHEAST NEBRASKA

CITY           SKY/WX    TMP DP  RH WIND       PRES   REMARKS
NORFOLK        FOG       41  40  96 CALM      30.04S VSB 3/4
ALBION         CLEAR     37  35  94 CALM      30.05F
BLAIR          CLOUDY    58  55  92 W3        30.04S FOG
COLUMBUS *     CLOUDY    43  39  87 CALM      30.07S VSB<1/4
FREMONT        FOG       49  49  97 NW3       30.05S VSB 1/4
TEKAMAH        FOG       54  53  97 CALM      30.04S VSB 1/4
WAYNE          FOG       40  40  99 CALM      30.05R VSB 3/4
$$

NEZ050>053-065>068-078-088>093-231400-
SOUTHEAST NEBRASKA

CITY           SKY/WX    TMP DP  RH WIND       PRES   REMARKS
LINCOLN        FOG       55  54  94 NW6       30.06S VSB<1/4
OMAHA EPPLEY   CLOUDY    62  58  86 W3        30.04S FOG
BEATRICE       FOG       50  50 100 CALM      30.05S VSB<1/4
FALLS CITY     PTCLDY    61  59  93 SW13      30.04F
NEBRASKA CITY  CLOUDY    59  59 100 W3        30.05S FOG
PLATTSMOUTH    CLOUDY    59  57  94 CALM      30.04S FOG
$$

NEZ044-045-051>053-067-231400-
OMAHA AREA

CITY           SKY/WX    TMP DP  RH WIND       PRES   REMARKS
OMAHA EPPLEY   CLOUDY    62  58  86 W3        30.04S FOG
BLAIR          CLOUDY    58  55  92 W3        30.04S FOG
FREMONT        FOG       49  49  97 NW3       30.05S VSB 1/4
MILLARD        MOCLDY    59  58  96 CALM      30.03S FOG
OFFUTT AFB     CLOUDY    61  61 100 SW2       30.03S
PLATTSMOUTH    CLOUDY    59  57  94 CALM      30.04S FOG
WAHOO            N/A     50  48  92 CALM      30.05R FOG
$$



USA.gov is the U.S. government's official web portal to all federal, state and local government web resources and services.